Regional Weather Roundup
Issued by NWS

Home | Current Version | Previous Version | Graphics & Text | Print | Product List | Glossary On
Versions: 1 2 3 4 5 6 7 8 9 10 11 12 13 14 15 16 17 18 19 20 21 22 23 24 25 26 27 28 29 30 31 32 33 34 35 36 37 38 39 40 41 42 43 44 45 46 47 48 49 50
059
ASUS43 KIND 231909
RWRIN

WEATHER ROUNDUP FOR INDIANA
NATIONAL WEATHER SERVICE INDIANAPOLIS IN
300 PM EDT THU MAR 23 2017

NOTE: "FAIR" INDICATES FEW OR NO CLOUDS BELOW 12,000 FEET WITH NO
SIGNIFICANT WEATHER AND/OR OBSTRUCTIONS TO VISIBILITY.

* - STATION DOES NOT REPORT WEATHER SUCH AS PRECIPITATION OR FOG.

+ - STATION NOT QUALITY CONTROLLED BY THE NATIONAL WEATHER SERVICE.
    USE DATA WITH CAUTION...ESPECIALLY DEWPOINT AND RELATIVE
    HUMIDITY OBSERVATIONS.

INZ001>003-010>013-019-020-232000-
NORTHWEST INDIANA

CITY           SKY/WX    TMP DP  RH WIND       PRES   REMARKS
GARY /AIRPORT/ CLOUDY    48  18  29 S14G26    30.28F
KNOX *+        SUNNY     43  -4  14 SE13G20   30.31F
LA PORTE +     SUNNY     42  23  46 SE16      30.31F
MICHIGAN CITY+ SUNNY     45  21  39 SE13G20   30.30F
MONTICELLO +   CLOUDY    47  23  38 SE12      30.30F
RENSSELAER +   CLOUDY    46  27  46 SE15      30.29F
VALPARAISO     MOSUNNY   47  21  35 SE17G26   30.29F

$$

LMZ046-743>745-232000-
SOUTHERN LAKE MICHIGAN

STATION/POSITION TIME  TEMP    WIND        PRES    WAVE
                       AIR SEA DIR/SP/G            HT
                 (UTC) (F)     (DEG/KT/KT) (MB)    (FT)
BURNS HARBOR     1840   44     140/ 15/ 21 1026.1F
MICHIGAN CITY    1840   41     130/ 19/ 23   N/A

$$

INZ004-005-014>016-021>024-232000-
NORTH CENTRAL INDIANA

CITY           SKY/WX    TMP DP  RH WIND       PRES   REMARKS
ELKHART        SUNNY     41  18  38 SE13      30.35F
GOSHEN         CLOUDY    42  20  41 SE13G20   30.34F
LOGANSPORT +   SUNNY     46  27  46 SE13      30.32F
PERU/GRISSOM   SUNNY     47  24  41 SE13G21   30.30F
ROCHESTER +    SUNNY     46  21  36 SE12      30.33F
SOUTH BEND       N/A     41  20  43 S18       30.33F
WARSAW +       MOSUNNY   41  21  45 SE14      30.34F

$$

INZ006>009-017-018-025>027-232000-
NORTHEAST INDIANA

CITY           SKY/WX    TMP DP  RH WIND       PRES   REMARKS
ANGOLA *+      MOSUNNY   41  27  56 S16       30.37F
AUBURN +       CLOUDY    43  19  39 SE8       30.38F
FORT WAYNE     PTSUNNY   43  23  45 SE12      30.36F
HUNTINGTON +   CLOUDY    41  21  43 SE9G16    30.35F
KENDALLVILLE + CLOUDY    40  20  45 SE15      30.36F

$$

INZ028-029-035-036-043>045-051>053-232000-
WEST CENTRAL INDIANA

CITY           SKY/WX    TMP DP  RH WIND       PRES   REMARKS
CRAWFORDSVL +  CLOUDY    49  25  38 SE9       30.29F
GREENCASTLE +  CLOUDY    50  21  32 SE13      30.29F
LAFAYETTE      PTSUNNY   51  24  34 SE16      30.29F
TERRE HAUTE    CLOUDY    49  25  39 SE10      30.29F

$$

INZ030>032-037>040-046>048-054>057-064-065-232000-
CENTRAL INDIANA

CITY           SKY/WX    TMP DP  RH WIND       PRES   REMARKS
ANDERSON       MOSUNNY   48  27  43 SE14      30.33F
CP ATTERBURY + PTSUNNY   54  21  28 SE8       30.32F
COLUMBUS       MOSUNNY   54  25  32 S9        30.32F
FISHERS *+     MOSUNNY   52  32  46 SE8G16    30.30
FRANKFORT +    SUNNY     54  26  34 S8        30.31F
GREENWOOD *+   PTSUNNY   52  26  36 SE10G16   30.32F
INDIANAPOLIS   PTSUNNY   52  23  32 SE16      30.29F
-EAGLE CREEK   PTSUNNY   52  22  30 SE9       30.29F
KOKOMO +       SUNNY     47  26  44 SE13      30.33F
MARION +       CLOUDY    44  23  43 SE12      30.33F
MT COMFORT *+  SUNNY     52  25  35 SE10G16   30.31F
SHELBYVILLE    MOSUNNY   54  24  31 SE15      30.31F
ZIONSVILLE +   MOSUNNY   50  27  40 S10       30.31F

$$

INZ033-034-041-042-049-050-058-059-232000-
EAST CENTRAL INDIANA

CITY           SKY/WX    TMP DP  RH WIND       PRES   REMARKS
MUNCIE         CLOUDY    48  23  37 SE15      30.33F
RICHMOND +     SUNNY     46  23  39 SE10      30.35F

$$

INZ060-061-067>069-081>083-085>088-232000-
SOUTHWEST INDIANA

CITY           SKY/WX    TMP DP  RH WIND       PRES   REMARKS
EVANSVILLE     CLOUDY    45  32  60 SE7       30.33F
HUNTINGBURG *+ CLOUDY    47  30  51 S7        30.32F
WASHINGTON +   CLOUDY    47  25  42 MISG      30.31F

$$

INZ062-063-066-070>080-084-089>092-232000-
SOUTH CENTRAL AND SOUTHEAST INDIANA

CITY           SKY/WX    TMP DP  RH WIND       PRES   REMARKS
BEDFORD +      MOSUNNY   52  18  25 SE9       30.31F
BLOOMINGTON    MOSUNNY   53  21  28 S9        30.29F
MADISON *+     MOSUNNY   57  19  23 E3        30.33F
NORTH VERNON + SUNNY     55  18  22 E7        30.34F
SEYMOUR +      SUNNY     55  28  35 E7        30.31F

$$





USA.gov is the U.S. government's official web portal to all federal, state and local government web resources and services.